OIAM  Mahshahr Airport

Add Bookmark

Iran

Status IATA
Operational MRX
Latitude Longitude
30° 33' 22" N 49° 9' 6" E
30.556200 49.151901
Local (DST + 5) UTC (GMT + 4)
Oct 25, 2014 01:38 Oct 25, 2014 10:08
Sunrise-Sunset Local UTC
Begin Civil Twilight 05:57 02:27
Sunrise 06:21 02:51
Sunset 05:33 14:03
End Civil Twilight 05:57 14:27

Current Weather

METAR Observed VFR
OIAM 250900Z 32016KT CAVOK 34/08 Q1012 Sat, Oct 25, 2014 @ 09:00 UTC
(1 Hour, 8 Minutes ago)
Visual Flight Rules
Wind Visibility Clouds Conditions
320° at 16 knots (30 kph) 10 km or more
  • Clear skies
  • No significant weather
Temperatures Readings Precipitation
Current Temp 34°C (93°F)
Dewpoint 8°C (46°F)
Humidity 20%
Altimeter 29.88"Hg
Sea Level Pressure 1012mb
Field Elevation 13.12'
None Recorded

Additional weather within a 92.6km radius of OIAM

Map ICAO Location
OIAG 54.4km E (067°)
OIAA 90.7km W (257°)

24 Hour Weather History

Loading
-

24 Hour Weather Graphs

Loading
-

CheckWX.com is intended as a tool to help pilots better visualize weather data. It is not intended as a substitute for an official weather briefing obtained from a Flight Service Station. CheckWX.com does not meet the FAA requirements for an official pre-flight weather briefing. Therefore, it's important that pilots still call and obtain an official FSS pre-flight weather briefing.